Weather History for KCRE - May, 2012

Change the Weather History Date:

Saturday, May 5, 2012

  Actual Average Record
Temperature  
Mean Temperature 79 °F 67 °F  
Max Temperature 88 °F 76 °F 91 °F (1952)
Min Temperature 70 °F 57 °F 45 °F (1997)
Degree Days  
Heating Degree Days 0 2  
Month to date heating degree days 0 10  
Since 1 July heating degree days 1785 2433  
Cooling Degree Days 14 3  
Month to date cooling degree days 52 15  
Year to date cooling degree days 202 57  
Growing Degree Days 28 (Base 50)    
Moisture  
Dew Point 69 °F    
Average Humidity 72    
Maximum Humidity 93    
Minimum Humidity 51    
Precipitation  
Precipitation 0.46 in 0.11 in 0.87 in (2005)
Month to date precipitation 0.46 0.50  
Year to date precipitation 8.92 14.49  
Sea Level Pressure  
Sea Level Pressure 29.87 in    
Wind  
Wind Speed 8 mph (WSW)    
Max Wind Speed 21 mph    
Max Gust Speed 33 mph    
Visibility 9 miles    
Events Rain    
T = Trace of Precipitation, MM = Missing Value Source: NWS Daily Summary

Daily Weather History Graph

Daily Weather History Graph

Search for Another Location

Airport or City:

Trip Planner

Search our weather history database for the weather conditions in past years. The results will help you decide how hot, cold, wet, or windy it might be!

Date:

Astronomy

May. 05, 2012 Rise Set
Actual Time 6:21 AM EDT 8:01 PM EDT
Civil Twilight 5:54 AM EDT 8:28 PM EDT
Nautical Twilight 5:22 AM EDT 9:01 PM EDT
Astronomical Twilight 4:48 AM EDT 9:35 PM EDT
Moon 7:50 PM EDT 5:42 AM EDT
Length of Visible Light 14h 33m
Length of Day
13h 40m
Full, 100% of the Moon is Illuminated
May 5
Full
May 5
Full
May 12
Last Quarter
May 20
New
May 28
First Quarter

Hourly Weather History & Observations

Time (EDT) Temp. Heat Index Dew Point Humidity Pressure Visibility Wind Dir Wind Speed Gust Speed Precip Events Conditions
12:53 AM 73.9 °F - 69.1 °F 85% 29.96 in 10.0 mi SW 4.6 mph - N/A   Clear
1:53 AM 73.0 °F - 70.0 °F 90% 29.93 in 10.0 mi SW 5.8 mph - N/A   Clear
2:53 AM 73.0 °F - 66.9 °F 81% 29.93 in 10.0 mi WSW 6.9 mph - N/A   Clear
3:53 AM 72.0 °F - 68.0 °F 87% 29.93 in 10.0 mi West 4.6 mph - N/A   Clear
4:53 AM 71.1 °F - 66.9 °F 87% 29.92 in 10.0 mi West 3.5 mph - N/A   Clear
5:53 AM 70.0 °F - 66.9 °F 90% 29.92 in 10.0 mi WSW 3.5 mph - N/A   Clear
6:53 AM 71.1 °F - 68.0 °F 90% 29.92 in 9.0 mi West 3.5 mph - N/A   Clear
7:53 AM 73.0 °F - 69.1 °F 87% 29.93 in 10.0 mi West 4.6 mph - N/A   Clear
8:53 AM 78.1 °F - 68.0 °F 71% 29.94 in 10.0 mi West 8.1 mph - N/A   Clear
9:53 AM 82.0 °F 85.5 °F 69.1 °F 65% 29.94 in 10.0 mi Variable 3.5 mph - N/A   Clear
10:53 AM 86.0 °F 88.8 °F 66.9 °F 53% 29.94 in 10.0 mi West 9.2 mph - N/A   Clear
11:53 AM 84.0 °F 89.0 °F 71.1 °F 65% 29.91 in 10.0 mi SSW 6.9 mph - N/A   Clear
12:53 PM 82.0 °F 85.9 °F 70.0 °F 67% 29.90 in 10.0 mi SSW 11.5 mph - N/A   Scattered Clouds
1:53 PM 82.9 °F 87.5 °F 71.1 °F 67% 29.88 in 10.0 mi South 9.2 mph - N/A   Mostly Cloudy
2:53 PM 81.0 °F 85.2 °F 72.0 °F 74% 29.86 in 10.0 mi SSW 11.5 mph - N/A   Mostly Cloudy
3:53 PM 84.0 °F 89.0 °F 71.1 °F 65% 29.83 in 10.0 mi SSW 12.7 mph - N/A   Partly Cloudy
4:53 PM 82.9 °F 87.5 °F 71.1 °F 67% 29.81 in 10.0 mi SW 15.0 mph - 0.00 in   Scattered Clouds
5:53 PM 81.0 °F 84.9 °F 71.1 °F 72% 29.80 in 10.0 mi SW 15.0 mph - N/A   Clear
6:53 PM 79.0 °F - 71.1 °F 77% 29.79 in 10.0 mi SW 15.0 mph - N/A   Clear
7:53 PM 78.1 °F - 71.1 °F 79% 29.79 in 9.0 mi SW 12.7 mph - N/A   Clear
8:53 PM 79.0 °F - 71.1 °F 77% 29.79 in 10.0 mi SW 15.0 mph - N/A   Scattered Clouds
9:53 PM 79.0 °F - 71.1 °F 77% 29.79 in 10.0 mi WSW 16.1 mph 25.3 mph N/A   Mostly Cloudy
10:05 PM 73.4 °F - 69.8 °F 88% 29.82 in 2.0 mi WNW 16.1 mph 33.4 mph 0.15 in Rain Heavy Rain
10:11 PM 71.6 °F - 66.2 °F 83% 29.84 in 1.0 mi West 10.4 mph 33.4 mph 0.39 in Rain Heavy Rain
10:21 PM 71.6 °F - 68.0 °F 88% 29.83 in 3.0 mi SW 6.9 mph - 0.46 in Rain Rain
10:30 PM 71.6 °F - 68.0 °F 88% 29.84 in 9.0 mi NNE 5.8 mph - 0.46 in Rain Light Rain
10:53 PM 71.1 °F - 68.0 °F 90% 29.87 in 10.0 mi North 3.5 mph - 0.46 in   Overcast
11:53 PM 71.1 °F - 69.1 °F 93% 29.86 in 9.0 mi Calm Calm - N/A   Scattered Clouds